Home > Weather > Bridlington > Past weeks

Flag for United Kingdom Weather for the Past 2 Weeks in Bridlington, England, United Kingdom

Now
34 °F

Chilly.


Feels Like: 34 °F
Forecast: 38 / 43 °F
Wind: 1 mph from Northwest

Location: Bridlington Mrsc

Current Time: Feb 13, 2016 at 5:28:51 AM

Latest Report: Feb 13, 2016 at 4:00 AM


Visibility: N/A

Pressure: 29.32 "Hg

Humidity: 93%

Dew point: 32 °F

Location of BridlingtonLocation

Historic Weather in Bridlington — Graph

°F

Bridlington Temperature Yesterday

Maximum temperature yesterday: 48 °F (at 2:00 PM)
Minimum temperature yesterday: 31 °F (at 3:00 AM)
Average temperature yesterday: 40 °F

High & Low Weather Summary for the Past Weeks

 TemperatureHumidityPressure
High58 °F (Feb 1, 12:00 PM)99% (Feb 6, 9:00 AM)30.18 "Hg (Feb 6, 9:00 AM)
Low31 °F (Feb 11, 8:00 AM)50% (Jan 29, 2:00 PM)28.67 "Hg (Feb 8, 7:00 AM)
Average44 °F80%29.48 "Hg
* Reported Jan 29 5:00 AM — Feb 13 4:00 AM, Bridlington, Weather by CustomWeather, © 2016

Note: Actual official high and low records may vary slightly from our data, if they occured in-between our weather recording intervals... More about our weather records

Advertising

Bridlington Weather History for the Previous 24 Hours

 ConditionsComfort  
Time TempWeatherWind HumidityBarometerVisibility
4:00 AM
Sat, Feb 13
34 °FChilly.1 mph93%29.32 "HgN/A
1:00 AM40 °FChilly.2 mph92%29.38 "HgN/A
12:00 AM41 °FQuite cool.14 mph90%29.38 "HgN/A
9:00 PM
Fri, Feb 12
38 °FChilly.5 mph93%29.41 "HgN/A
8:00 PM40 °FChilly.6 mph90%29.44 "HgN/A
7:00 PM39 °FChilly.8 mph85%29.44 "HgN/A
6:00 PM40 °FQuite cool.7 mph81%29.41 "HgN/A
5:00 PM42 °FQuite cool.8 mph75%29.41 "HgN/A
4:00 PM43 °FQuite cool.9 mph72%29.41 "HgN/A
3:00 PM47 °FCool.8 mph64%29.41 "HgN/A
2:00 PM48 °FCool.8 mph68%29.41 "HgN/A
1:00 PM46 °FCool.10 mph71%29.41 "HgN/A
12:00 PM47 °FCool.5 mph75%29.41 "HgN/A
11:00 AM41 °FQuite cool.No wind86%29.41 "HgN/A
10:00 AM40 °FQuite cool.2 mph80%29.41 "HgN/A
9:00 AM41 °FQuite cool.10 mph86%29.41 "HgN/A
8:00 AM40 °FChilly.10 mph87%29.41 "HgN/A
7:00 AM35 °FChilly.8 mph95%29.44 "HgN/A
6:00 AM33 °FChilly.2 mph96%29.44 "HgN/A
Weather by CustomWeather, © 2016

See weather overviewHow to use our weather pages